Biggin Hill, United Kingdom

8:38 PM BST on June 22, 2018 (GMT +0100)
Biggin Hill

Weather History for EGKB - December, 2006

Change the Weather History Date:

Wednesday, December 27, 2006

  Actual Average Record
Temperature  
Mean Temperature 35 °F -  
Max Temperature 37 °F 41 °F 53 °F (2015)
Min Temperature 33 °F 35 °F 26 °F (2004)
Degree Days  
Heating Degree Days 30    
Moisture  
Dew Point 33 °F    
Average Humidity 90    
Maximum Humidity 93    
Minimum Humidity 87    
Precipitation  
Precipitation 0.00 in - - ()
Sea Level Pressure  
Sea Level Pressure 30.37 in    
Wind  
Wind Speed 4 mph ()    
Max Wind Speed 10 mph    
Max Gust Speed -    
Visibility 5.1 miles    
Events      
Averages and records for this station are not official NWS values.
T = Trace of Precipitation, MM = Missing Value Source: Averaged Metar Reports

Daily Weather History Graph

Daily Weather History Graph

Search for Another Location

Airport or City:

Astronomy

Dec. 27, 2006 Rise Set
Actual Time 8:04 AM GMT 3:57 PM GMT
Civil Twilight 7:24 AM GMT 4:37 PM GMT
Nautical Twilight 6:41 AM GMT 5:20 PM GMT
Astronomical Twilight 6:01 AM GMT 6:01 PM GMT
Moon 11:36 AM GMT (12/27) No Moon Set
Length of Visible Light 9h 13m
Length of Day
7h 53m
Waxing Crescent, 49% of the Moon is Illuminated
Dec 27
Waxing Crescent
Dec 27
First Quarter
Jan 3
Full
Jan 11
Last Quarter
Jan 19
New

Hourly Weather History & Observations

Time (GMT) Temp. Windchill Dew Point Humidity Pressure Visibility Wind Dir Wind Speed Gust Speed Precip Events Conditions
7:20 AM 35.6 °F - 32.0 °F 87% 30.39 in 6.2 mi SSW 2.3 mph - N/A   Mostly Cloudy
7:50 AM 35.6 °F 32.8 °F 32.0 °F 87% 30.39 in 6.2 mi SSW 3.5 mph - N/A   Mostly Cloudy
8:20 AM 35.6 °F - 32.0 °F 87% 30.39 in 6.2 mi South 2.3 mph - N/A   Mostly Cloudy
8:50 AM 35.6 °F 32.8 °F 33.8 °F 93% 30.39 in 6.2 mi South 3.5 mph - N/A   Mostly Cloudy
9:20 AM 35.6 °F - 33.8 °F 93% 30.39 in 5.0 mi SW 1.2 mph - N/A   Mostly Cloudy
9:50 AM 35.6 °F 32.8 °F 33.8 °F 93% 30.42 in 5.0 mi SSW 3.5 mph - N/A   Mostly Cloudy
10:20 AM 35.6 °F - 33.8 °F 93% 30.42 in 5.0 mi SSW 2.3 mph - N/A   Mostly Cloudy
10:50 AM 35.6 °F 32.8 °F 33.8 °F 93% 30.39 in 5.0 mi SW 3.5 mph - N/A   Mostly Cloudy
11:20 AM 35.6 °F - 33.8 °F 93% 30.39 in 5.0 mi WSW 2.3 mph - N/A   Mostly Cloudy
11:50 AM 37.4 °F 34.9 °F 33.8 °F 87% 30.39 in 4.3 mi WSW 3.5 mph - N/A   Mostly Cloudy
12:20 PM 37.4 °F 34.9 °F 33.8 °F 87% 30.39 in 4.3 mi WSW 3.5 mph - N/A   Mostly Cloudy
12:50 PM 37.4 °F 34.9 °F 33.8 °F 87% 30.36 in 4.3 mi SW 3.5 mph - N/A   Mostly Cloudy
1:50 PM 37.4 °F 33.8 °F 33.8 °F 87% 30.36 in 4.3 mi SW 4.6 mph - N/A   Mostly Cloudy
2:20 PM 37.4 °F 33.8 °F 33.8 °F 87% 30.36 in 4.3 mi SW 4.6 mph - N/A   Mostly Cloudy
2:50 PM 37.4 °F 33.8 °F 33.8 °F 87% 30.33 in 4.3 mi SSW 4.6 mph - N/A   Mostly Cloudy
3:20 PM 37.4 °F 32.1 °F 33.8 °F 87% 30.33 in 5.0 mi SSW 6.9 mph - N/A   Mostly Cloudy
3:50 PM 37.4 °F 32.8 °F 33.8 °F 87% 30.33 in 5.0 mi South 5.8 mph - N/A   Scattered Clouds
4:20 PM 33.8 °F 29.6 °F 32.0 °F 93% 30.33 in 5.0 mi South 4.6 mph - N/A   Partly Cloudy
5:20 PM 33.8 °F 28.6 °F 32.0 °F 93% 30.33 in 5.6 mi South 5.8 mph - N/A   Unknown
5:50 PM 35.6 °F 29.9 °F 32.0 °F 87% 30.33 in - South 6.9 mph - N/A   Clear
6:20 PM 35.6 °F 28.6 °F 33.8 °F 93% 30.33 in - South 9.2 mph - N/A   Clear
6:50 PM 35.6 °F 28.0 °F 33.8 °F 93% 30.33 in 5.6 mi South 10.4 mph - N/A   Partly Cloudy
7:20 PM 37.4 °F 30.3 °F 35.6 °F 93% 30.33 in 5.6 mi South 10.4 mph - N/A   Scattered Clouds